When you browse on this site, cookies collect data to enhance your experience and personalize the content and advertising you see.
Visit our Privacy Policy to learn more. By continuing to use the site, you agree to this use of cookies and data.
  • In Austria
  • List of Countries
  • For 7 days
  • Water Temperature
  • Satellite Maps
  • Weather Map
  • News
  • Weather Widgets
  • user-avatar
    Login

    Hourly Weather Punta Gorda

    Today, 27 June, Thursday

    Time Temperature Precipitation Wind Pressure Humidity
    00:00 +26°C° 1.3 mm 4 mps 760 mmHg 96%
    01:00 +26°C° 1.1 mm 3 mps 760 mmHg 96%
    02:00 +26°C° 1.1 mm 3 mps 759 mmHg 97%
    03:00 +26°C° 1.1 mm 3 mps 759 mmHg 97%
    04:00 +26°C° 1 mm 3 mps 759 mmHg 97%
    05:00 +26°C° 1 mm 3 mps 760 mmHg 97%
    06:00 +26°C° 1 mm 2 mps 760 mmHg 97%
    07:00 +27°C° 1 mm 3 mps 760 mmHg 95%
    08:00 +27°C° 1 mm 3 mps 760 mmHg 94%
    09:00 +28°C° 1 mm 3 mps 760 mmHg 92%
    10:00 +29°C° 1.2 mm 3 mps 760 mmHg 92%
    11:00 +29°C° 1.2 mm 3 mps 760 mmHg 91%
    12:00 +29°C° 1.2 mm 4 mps 760 mmHg 91%
    13:00 +30°C° 0.5 mm 4 mps 760 mmHg 83%
    14:00 +32°C° 0.5 mm 4 mps 759 mmHg 75%
    15:00 +33°C° 0.5 mm 5 mps 759 mmHg 67%
    16:00 +32°C° 2.1 mm 5 mps 759 mmHg 72%
    17:00 +30°C° 2.1 mm 5 mps 759 mmHg 78%
    18:00 +28°C° 2.1 mm 5 mps 759 mmHg 83%
    19:00 +28°C° 1.9 mm 5 mps 759 mmHg 87%
    20:00 +27°C° 1.9 mm 4 mps 760 mmHg 91%
    21:00 +26°C° 1.9 mm 4 mps 761 mmHg 96%
    22:00 +26°C° 2 mm 4 mps 761 mmHg 96%
    23:00 +26°C° 2 mm 3 mps 761 mmHg 96%

    Tomorrow, 28 June, Friday

    Time Temperature Precipitation Wind Pressure Humidity
    00:00 +26°C° 2 mm 3 mps 761 mmHg 95%
    01:00 +26°C° 0.8 mm 3 mps 760 mmHg 96%
    02:00 +25°C° 0.8 mm 2 mps 760 mmHg 96%
    03:00 +25°C° 0.8 mm 2 mps 759 mmHg 96%
    04:00 +25°C° 0.3 mm 2 mps 760 mmHg 96%
    05:00 +25°C° 0.3 mm 2 mps 760 mmHg 96%
    06:00 +25°C° 0.3 mm 2 mps 760 mmHg 96%
    07:00 +27°C° 0.8 mm 2 mps 760 mmHg 92%
    08:00 +28°C° 0.8 mm 2 mps 760 mmHg 87%
    09:00 +30°C° 0.8 mm 2 mps 761 mmHg 83%
    10:00 +30°C° 1.1 mm 2 mps 760 mmHg 83%
    11:00 +30°C° 1.1 mm 3 mps 760 mmHg 84%
    12:00 +30°C° 1.1 mm 3 mps 760 mmHg 84%
    13:00 +31°C° 0.5 mm 3 mps 759 mmHg 80%
    14:00 +31°C° 0.5 mm 3 mps 759 mmHg 76%
    15:00 +33°C° 0.5 mm 3 mps 758 mmHg 72%
    16:00 +31°C° 0.1 mm 3 mps 758 mmHg 74%
    17:00 +30°C° 0.1 mm 3 mps 759 mmHg 75%
    18:00 +30°C° 0.1 mm 4 mps 759 mmHg 77%
    19:00 +28°C° 0.5 mm 3 mps 759 mmHg 83%
    20:00 +27°C° 0.5 mm 3 mps 760 mmHg 89%
    21:00 +26°C° 0.5 mm 3 mps 760 mmHg 95%
    22:00 +26°C° 0.6 mm 3 mps 760 mmHg 95%
    23:00 +26°C° 0.6 mm 2 mps 760 mmHg 95%

    Day after tomorrow, 29 June, Saturday

    Time Temperature Precipitation Wind Pressure Humidity
    00:00 +26°C° 0.6 mm 2 mps 760 mmHg 96%
    01:00 +25°C° 0.6 mm 2 mps 760 mmHg 96%
    02:00 +25°C° 0.6 mm 2 mps 760 mmHg 97%
    03:00 +25°C° 0.6 mm 1 mps 759 mmHg 97%
    04:00 +25°C° 1.8 mm 1 mps 759 mmHg 97%
    05:00 +25°C° 1.8 mm 1 mps 759 mmHg 97%
    06:00 +25°C° 1.8 mm 1 mps 760 mmHg 97%
    07:00 +26°C° 1 mm 1 mps 760 mmHg 93%
    08:00 +27°C° 1 mm 1 mps 760 mmHg 89%
    09:00 +29°C° 1 mm 1 mps 761 mmHg 85%
    10:00 +29°C° 0.9 mm 1 mps 761 mmHg 83%
    11:00 +30°C° 0.9 mm 1 mps 760 mmHg 81%
    12:00 +30°C° 0.9 mm 1 mps 760 mmHg 80%
    13:00 +31°C° 0.3 mm 2 mps 760 mmHg 75%
    14:00 +31°C° 0.3 mm 2 mps 759 mmHg 70%
    15:00 +33°C° 0.3 mm 3 mps 759 mmHg 65%
    16:00 +31°C° 0.1 mm 3 mps 759 mmHg 68%
    17:00 +30°C° 0.1 mm 3 mps 759 mmHg 72%
    18:00 +29°C° 0.1 mm 3 mps 759 mmHg 75%
    19:00 +28°C° 0.5 mm 3 mps 760 mmHg 80%
    20:00 +27°C° 0.5 mm 2 mps 760 mmHg 84%
    21:00 +26°C° 0.5 mm 2 mps 761 mmHg 88%
    22:00 +25°C° 0.5 mm 2 mps 761 mmHg 89%
    23:00 +25°C° 0.5 mm 2 mps 760 mmHg 90%

    30 June, Sunday

    Time Temperature Precipitation Wind Pressure Humidity
    00:00 +25°C° 0.5 mm 1 mps 760 mmHg 91%
    01:00 +25°C° 0.8 mm 1 mps 760 mmHg 92%
    02:00 +24°C° 0.8 mm 1 mps 760 mmHg 92%
    03:00 +24°C° 0.8 mm 2 mps 759 mmHg 93%
    04:00 +24°C° 1.2 mm 1 mps 759 mmHg 94%
    05:00 +25°C° 1.2 mm 1 mps 760 mmHg 94%
    06:00 +25°C° 1.2 mm 1 mps 760 mmHg 95%
    07:00 +25°C° 1.9 mm 1 mps 760 mmHg 96%
    08:00 +25°C° 1.9 mm 1 mps 760 mmHg 97%
    09:00 +25°C° 1.9 mm 2 mps 761 mmHg 98%
    10:00 +26°C° 0.3 mm 2 mps 760 mmHg 95%
    11:00 +27°C° 0.3 mm 2 mps 760 mmHg 92%
    12:00 +27°C° 0.3 mm 2 mps 760 mmHg 89%
    13:00 +28°C° 0.7 mm 2 mps 759 mmHg 90%
    14:00 +28°C° 0.7 mm 2 mps 759 mmHg 91%
    15:00 +29°C° 0.7 mm 2 mps 758 mmHg 91%
    16:00 +28°C° 1.3 mm 3 mps 758 mmHg 93%
    17:00 +27°C° 1.3 mm 3 mps 759 mmHg 94%
    18:00 +27°C° 1.3 mm 3 mps 759 mmHg 96%
    19:00 +26°C° 2.7 mm 3 mps 759 mmHg 96%
    20:00 +26°C° 2.7 mm 3 mps 760 mmHg 97%
    21:00 +26°C° 2.7 mm 3 mps 761 mmHg 97%
    22:00 +26°C° 4.2 mm 3 mps 760 mmHg 97%
    23:00 +26°C° 4.2 mm 3 mps 760 mmHg 98%

    1 July, Monday

    Time Temperature Precipitation Wind Pressure Humidity
    00:00 +26°C° 4.2 mm 3 mps 760 mmHg 98%
    01:00 +26°C° 2.2 mm 3 mps 760 mmHg 98%
    02:00 +26°C° 2.2 mm 2 mps 760 mmHg 98%
    03:00 +26°C° 2.2 mm 2 mps 760 mmHg 97%
    04:00 +26°C° 0.7 mm 2 mps 760 mmHg 97%
    05:00 +26°C° 0.7 mm 2 mps 760 mmHg 97%
    06:00 +26°C° 0.7 mm 2 mps 760 mmHg 98%
    07:00 +27°C° 0.1 mm 2 mps 760 mmHg 95%
    08:00 +28°C° 0.1 mm 2 mps 761 mmHg 92%
    09:00 +29°C° 0.1 mm 2 mps 761 mmHg 89%
    10:00 +30°C° 0.2 mm 2 mps 761 mmHg 80%
    11:00 +31°C° 0.2 mm 3 mps 760 mmHg 72%
    12:00 +34°C° 0.2 mm 4 mps 760 mmHg 64%
    13:00 +34°C° 0 mm 4 mps 760 mmHg 62%
    14:00 +34°C° 0 mm 5 mps 759 mmHg 60%
    15:00 +34°C° 0 mm 5 mps 759 mmHg 58%
    16:00 +33°C° 0.5 mm 5 mps 759 mmHg 67%
    17:00 +30°C° 0.5 mm 5 mps 759 mmHg 76%
    18:00 +29°C° 0.5 mm 5 mps 759 mmHg 85%
    19:00 +28°C° 1.2 mm 5 mps 760 mmHg 88%
    20:00 +27°C° 1.2 mm 4 mps 760 mmHg 92%
    21:00 +26°C° 1.2 mm 4 mps 761 mmHg 95%
    22:00 +26°C° 0.9 mm 4 mps 761 mmHg 96%
    23:00 +26°C° 0.9 mm 4 mps 761 mmHg 96%

    2 July, Tuesday

    Time Temperature Precipitation Wind Pressure Humidity
    00:00 +26°C° 0.9 mm 4 mps 760 mmHg 97%
    01:00 +26°C° 0.4 mm 4 mps 760 mmHg 97%
    02:00 +26°C° 0.4 mm 4 mps 760 mmHg 97%
    03:00 +26°C° 0.4 mm 4 mps 759 mmHg 96%
    04:00 +26°C° 0.3 mm 4 mps 760 mmHg 96%
    05:00 +26°C° 0.3 mm 3 mps 760 mmHg 96%
    06:00 +26°C° 0.3 mm 3 mps 760 mmHg 96%
    07:00 +27°C° 0.3 mm 3 mps 760 mmHg 93%
    08:00 +29°C° 0.3 mm 3 mps 761 mmHg 89%
    09:00 +30°C° 0.3 mm 4 mps 761 mmHg 86%
    10:00 +32°C° 0.3 mm 4 mps 761 mmHg 79%
    11:00 +33°C° 0.3 mm 4 mps 760 mmHg 72%
    12:00 +34°C° 0.3 mm 5 mps 760 mmHg 65%
    13:00 +34°C° 0.1 mm 5 mps 759 mmHg 63%
    14:00 +34°C° 0.1 mm 5 mps 759 mmHg 60%
    15:00 +34°C° 0.1 mm 6 mps 758 mmHg 58%
    16:00 +33°C° 0.3 mm 5 mps 758 mmHg 66%
    17:00 +32°C° 0.3 mm 5 mps 759 mmHg 74%
    18:00 +29°C° 0.3 mm 5 mps 759 mmHg 81%
    19:00 +28°C° 0.7 mm 4 mps 759 mmHg 86%
    20:00 +27°C° 0.7 mm 4 mps 759 mmHg 91%
    21:00 +26°C° 0.7 mm 4 mps 760 mmHg 96%
    22:00 +26°C° 0.8 mm 3 mps 760 mmHg 96%
    23:00 +26°C° 0.8 mm 3 mps 760 mmHg 96%
    Show more